Theta_e
311 312 318 322 321 320 333 335 335 336 337 336 335 334 331 330 326 326 331 334 334 334 330 329 325 325 324 322 320 317 311 311 311 311 311 313 315 316 316 317 311 309 307
312 315 317 318 327 332 330 335 336 337 337 336 331 331 325 320 320 320 319 320 322 325 327 325 324 324 323 320 317 315 312 313 314 311 309 306 309 311 313 313 311 309 308
313 316 317 319 325 328 329 336 336 336 335 328 322 319 318 318 317 315 315 314 314 313 315 317 315 315 319 315 314 314 313 312 313 315 310 304 302 305 309 308 309 308 307
314 318 318 319 319 320 325 333 336 334 333 328 323 324 319 317 315 315 314 312 312 309 309 310 310 310 310 308 309 308 309 312 310 311 312 309 308 302 301 306 306 306 304
313 314 316 317 317 317 318 325 331 331 329 327 326 324 319 315 312 308 306 306 307 308 307 307 307 306 307 307 308 308 306 308 307 307 307 307 307 307 303 299 301 304 305
313 316 317 317 315 315 316 320 324 323 324 320 321 322 316 310 307 305 304 304 305 306 306 306 306 306 307 307 307 307 307 307 306 307 306 305 303 302 302 300 301 300 302
311 314 315 315 314 312 312 315 315 313 316 317 316 314 314 311 308 305 303 302 302 303 303 305 305 305 305 304 305 303 303 302 302 302 301 303 303 304 303 302 300 299 301
312 313 313 315 314 314 312 312 312 310 311 310 309 309 309 308 306 305 303 303 303 303 304 304 303 303 302 303 302 301 301 301 300 300 300 301 301 303 303 302 300 297 299
312 313 314 315 315 314 313 314 313 311 310 309 308 307 306 305 304 304 304 304 303 303 304 303 301 302 301 301 300 299 297 298 297 299 299 299 299 300 301 301 301 299 294
312 313 313 315 316 316 315 312 313 313 311 309 308 307 307 306 305 305 303 303 303 301 301 300 301 302 299 298 297 295 295 295 293 295 296 296 296 297 298 299 299 300 298
310 312 313 315 316 317 317 315 313 312 311 310 309 308 307 306 305 303 302 302 302 302 302 301 300 299 297 296 295 294 294 293 292 293 294 294 295 295 295 293 293 295 296
306 311 313 315 315 316 315 314 312 311 311 310 309 307 305 305 304 303 302 301 301 300 299 298 297 296 296 294 293 293 293 292 291 290 290 289 291 287 287 287 288 289 290
308 311 312 314 315 315 314 313 312 311 310 310 309 307 306 305 304 304 303 302 303 301 299 298 297 297 296 294 293 293 292 291 290 289 288 287 287 285 285 286 285 286 291
308 311 312 312 313 314 313 313 313 311 310 309 308 306 306 306 305 305 304 304 303 301 300 300 299 296 295 294 294 293 291 290 290 289 288 288 288 286 287 288 286 287 287
307 308 308 306 308 310 311 312 313 314 312 309 308 306 307 307 306 305 305 303 303 300 299 298 295 294 292 293 291 292 290 289 288 285 284 283 286 288 286 284 283 284 284
304 306 306 305 305 305 306 308 309 312 314 310 308 307 307 307 305 304 303 300 299 298 297 295 293 291 293 292 292 291 288 289 285 282 281 281 283 284 286 286 286 284 282
295 296 297 300 303 304 306 306 308 311 312 312 311 308 307 306 304 303 301 299 297 297 295 293 293 291 292 292 292 291 288 286 284 282 281 281 281 280 280 284 284 284 285
293 295 294 295 298 302 304 304 305 306 307 307 309 309 307 304 304 302 299 299 298 295 293 293 292 292 289 292 292 290 287 286 284 282 280 279 278 277 278 277 274 272 275
293 293 293 294 295 297 300 301 301 302 302 302 304 305 306 304 304 300 293 296 299 294 289 289 290 288 287 291 290 288 286 285 285 285 280 277 275 283 283 273 271 269 270
293 291 292 294 294 295 296 298 297 298 297 298 301 304 303 302 298 299 295 292 295 291 292 288 288 288 287 290 289 287 286 284 283 282 278 282 276 284 282 272 271 269 271
293 293 291 288 291 293 294 294 294 294 292 294 293 295 304 303 301 297 295 292 290 289 288 288 287 287 287 287 289 288 285 284 282 280 276 275 283 283 283 279 271 270 268
290 291 291 291 291 292 292 292 294 297 296 294 293 295 298 304 302 300 294 291 289 289 287 286 286 286 286 287 288 288 287 285 280 280 281 280 284 283 283 279 280 280 272
291 292 290 290 292 292 292 290 293 297 294 293 292 292 295 298 297 296 292 291 290 290 288 287 286 285 285 286 288 287 286 285 281 281 282 283 284 282 281 282 283 277 273
290 291 291 290 290 292 292 291 291 295 293 291 292 292 292 294 294 295 293 293 291 289 288 287 286 285 284 285 286 286 285 284 284 284 283 282 281 280 271 277 280 275 275
292 292 291 291 290 291 290 290 290 294 292 292 291 290 290 290 291 292 293 293 293 291 289 288 287 285 284 285 286 286 284 284 284 283 281 279 278 276 273 271 272 273 274
291 291 292 292 292 293 292 291 290 294 291 288 289 290 291 291 291 291 290 290 291 290 290 290 289 287 288 287 287 286 286 285 283 280 277 277 276 275 275 274 274 275 274
Wind_Speed
9 4 8 7 7 10 12 15 16 13 11 8 7 6 6 4 4 4 3 6 5 6 7 4 6 4 7 6 8 4 6 2 4 5 4 5 5 6 7 7 10 11 9
10 7 9 9 9 9 11 15 14 14 12 8 3 4 5 4 4 4 6 7 5 4 4 5 5 3 5 5 5 7 4 5 7 6 4 5 3 5 3 7 7 10 9
9 7 9 9 10 12 9 12 14 15 9 9 8 6 6 5 3 3 4 6 6 7 7 6 8 5 4 4 3 2 5 4 3 11 3 4 5 5 3 4 5 9 7
8 7 9 9 9 8 10 5 10 11 10 12 8 12 6 6 3 3 4 4 5 7 9 9 8 10 7 8 8 9 7 5 6 3 5 6 5 5 5 2 3 4 8
9 8 9 8 6 8 8 8 6 5 7 9 10 8 7 5 6 7 8 7 6 8 9 10 11 11 9 10 11 11 11 8 3 4 1 9 7 5 3 4 4 2 1
7 8 7 7 6 7 7 6 5 4 4 4 6 9 12 11 9 8 7 6 5 6 8 11 11 10 9 9 9 9 10 8 8 3 1 3 3 2 3 3 6 6 1
6 7 7 6 5 6 5 5 5 4 5 5 5 4 7 9 11 11 8 9 7 5 7 7 6 7 6 8 9 4 11 8 7 6 6 5 5 3 1 3 2 3 2
5 3 4 7 7 6 6 5 4 4 5 6 6 6 6 4 6 7 8 8 6 6 6 7 7 4 9 5 7 9 5 4 6 8 5 5 4 3 2 3 3 3 2
7 7 6 9 8 8 8 7 4 4 4 5 6 7 7 8 7 8 9 5 8 8 8 8 8 9 3 10 5 5 8 4 4 5 6 4 3 4 4 3 3 4 3
8 8 7 8 7 8 7 8 8 6 5 5 5 6 8 8 9 9 10 10 9 10 9 10 9 8 7 6 7 6 7 5 3 3 5 3 2 3 3 3 3 2 3
5 9 8 9 8 9 8 7 7 8 6 5 5 6 7 8 9 10 11 11 11 12 11 10 9 10 9 7 7 7 7 7 6 5 5 5 4 3 2 2 1 4 3
6 5 8 8 7 11 10 11 10 9 8 7 7 7 8 9 9 9 10 10 10 9 10 10 9 8 7 7 8 8 7 8 7 7 6 6 4 4 3 2 1 2 2
7 7 3 4 9 10 10 12 12 12 11 10 8 8 8 8 9 10 10 9 10 10 9 10 10 11 10 9 7 8 8 7 7 7 7 6 7 4 3 3 3 2 2
4 5 7 7 5 5 5 5 12 12 14 14 14 11 11 10 8 8 8 9 9 9 8 9 9 9 9 9 8 10 8 7 7 7 6 6 6 6 6 5 4 3 3
9 8 8 7 6 4 4 5 5 6 10 14 13 13 11 11 12 12 12 8 10 8 9 8 7 6 7 6 7 9 8 7 7 8 8 6 9 12 8 3 4 4 4
12 10 9 8 7 5 5 4 5 3 3 9 12 14 16 15 13 11 12 12 8 9 8 7 9 8 5 10 10 9 8 8 9 7 7 5 9 11 13 14 13 6 4
11 11 10 8 6 6 5 5 4 7 3 3 5 10 11 12 12 10 11 12 13 13 13 10 11 9 7 14 17 16 8 9 8 8 7 6 4 7 6 11 13 13 12
4 5 5 5 6 5 7 7 6 6 6 5 3 7 11 11 10 12 13 12 12 12 11 12 12 11 7 17 18 15 7 7 8 9 9 8 6 5 6 8 7 6 5
1 2 6 6 6 7 7 6 7 7 6 6 7 7 13 13 15 16 12 13 13 12 10 8 11 12 9 19 21 15 9 8 8 8 8 9 7 12 14 8 8 5 4
3 5 8 7 7 8 7 8 9 7 7 8 8 9 13 14 17 17 16 11 11 12 10 9 10 13 12 20 23 17 9 9 7 5 5 16 10 13 14 7 7 6 3
6 6 7 7 7 7 8 10 9 9 8 7 6 6 12 17 18 17 14 13 10 12 13 13 10 12 12 14 21 21 10 9 8 8 5 4 15 15 14 13 6 6 6
8 9 7 9 9 8 7 13 14 12 8 8 7 7 9 13 12 14 10 13 13 14 14 13 9 8 10 15 19 20 15 16 10 10 8 7 17 16 15 11 12 14 7
12 11 10 12 11 11 9 10 10 8 6 6 7 6 7 9 10 15 16 13 13 13 12 13 12 10 9 9 20 19 19 18 7 7 11 14 16 17 11 13 15 11 5
9 11 11 12 12 10 11 10 8 7 5 6 6 5 6 8 9 9 12 15 15 13 13 12 12 11 10 11 11 11 13 15 9 12 11 10 9 6 5 5 8 5 5
8 9 12 12 13 12 9 9 8 7 7 6 5 5 5 6 8 10 13 14 17 21 17 15 14 15 14 16 21 20 14 12 12 12 8 8 7 7 5 2 3 3 3
11 11 14 14 15 15 15 13 8 9 8 7 5 5 5 6 7 8 7 7 8 23 24 23 18 12 11 23 27 26 24 23 23 11 10 9 10 9 9 8 7 6 6
Wind_Direction
248 138 102 79 74 105 154 160 158 170 166 167 153 165 148 114 76 62 114 147 142 149 158 191 136 144 143 157 154 146 161 175 160 98 44 37 72 145 141 139 137 136 136
57 81 75 65 55 47 158 159 163 158 168 171 126 114 117 85 93 74 58 44 62 74 90 114 94 99 115 142 161 153 172 178 172 145 126 117 65 33 37 131 138 144 146
92 71 60 57 44 43 23 157 155 156 151 120 111 89 81 72 82 46 57 62 58 62 81 79 95 68 75 109 78 22 164 163 7 148 101 126 166 137 11 33 130 136 135
77 76 62 52 38 28 17 38 141 135 139 146 135 157 150 150 148 137 134 109 86 89 91 91 91 87 71 65 53 42 25 7 99 345 50 355 122 139 142 8 39 115 136
89 91 82 83 59 43 38 2 75 109 141 153 156 155 139 114 126 128 126 114 110 111 110 108 107 100 103 97 87 75 69 89 19 98 115 79 58 60 124 163 165 79 183
113 111 113 100 79 58 48 41 43 56 84 114 144 154 152 143 138 143 136 136 127 122 120 126 126 129 132 127 126 129 124 131 124 127 141 132 129 129 143 123 168 140 90
133 141 144 133 118 98 79 45 58 52 58 92 96 123 146 147 152 151 147 144 141 146 154 138 151 145 128 124 121 91 113 130 114 115 108 93 84 109 72 88 103 117 100
128 102 166 139 132 118 108 103 95 93 75 89 91 89 88 111 136 146 148 144 138 136 145 115 90 29 114 106 131 112 105 116 121 115 101 115 108 98 70 107 100 67 98
159 158 130 144 149 153 150 139 138 139 135 125 123 121 123 126 128 125 126 131 125 132 139 123 125 127 139 127 144 129 125 152 146 140 140 136 144 133 140 128 132 140 183
175 175 161 155 167 157 148 147 155 164 146 138 134 139 135 134 133 140 133 133 127 125 136 129 149 136 131 148 144 138 111 150 113 95 111 85 101 140 134 122 120 129 153
239 186 170 177 172 140 146 141 133 135 136 141 135 130 125 131 133 132 137 141 147 151 154 154 158 141 161 150 127 129 146 135 128 136 148 151 159 145 118 105 147 163 147
40 235 177 162 131 136 136 139 133 135 129 133 136 134 137 146 146 144 143 147 151 155 151 156 144 152 155 141 143 154 149 153 150 156 140 143 120 110 111 110 92 144 118
50 45 94 125 135 144 149 151 151 153 150 149 150 152 154 160 156 152 151 155 156 159 165 158 162 169 163 148 159 154 155 142 139 144 140 136 128 122 110 103 106 126 137
99 128 109 89 71 79 93 141 161 168 165 162 163 170 169 156 160 151 149 165 160 159 181 163 159 158 147 148 152 140 136 136 138 141 144 141 134 159 178 170 196 200 148
40 48 61 58 68 64 58 46 59 173 188 175 171 172 168 163 160 162 158 161 170 151 153 156 128 145 145 156 148 136 142 137 120 101 106 109 107 97 80 121 191 190 177
35 47 45 37 45 51 18 22 353 30 87 197 187 179 176 164 174 160 151 151 159 148 156 156 155 149 168 174 155 133 133 133 122 124 106 94 92 86 87 87 82 95 142
28 30 22 11 358 7 327 294 290 299 359 250 181 186 189 159 163 164 168 170 173 165 170 168 161 165 171 167 143 135 135 137 140 138 123 106 95 106 117 99 86 69 62
43 357 335 322 306 292 289 282 270 261 257 254 251 207 181 157 162 186 184 185 178 174 179 182 165 159 162 152 142 133 128 130 150 149 138 132 138 152 126 103 88 76 67
312 289 284 263 275 279 260 250 240 240 231 228 220 190 183 167 180 183 193 183 179 176 169 179 165 150 158 148 134 130 137 129 137 140 137 133 145 152 137 113 111 93 64
257 257 276 290 291 272 271 271 269 243 236 236 228 198 201 196 186 187 182 196 183 169 154 162 163 162 160 152 148 142 139 135 136 123 135 152 148 159 146 131 132 124 164
252 258 276 265 257 274 283 271 253 251 229 225 236 245 225 206 196 187 179 183 172 159 161 163 158 161 157 164 153 151 151 148 150 154 160 141 162 170 164 155 149 166 151
255 252 257 267 265 259 266 283 274 246 222 212 219 236 236 223 208 195 174 163 165 168 161 159 160 154 157 164 167 164 143 153 161 166 170 160 169 180 179 163 179 161 141
271 261 248 252 252 250 247 259 268 275 248 216 223 224 229 227 194 175 167 171 170 172 176 170 168 164 163 173 174 155 147 154 150 160 162 159 175 184 184 170 174 154 155
272 270 262 251 246 239 240 241 237 214 186 246 263 245 214 203 206 196 185 175 174 173 172 183 175 164 166 174 175 155 155 158 162 160 158 164 168 160 136 159 174 160 172
325 328 313 302 283 265 243 245 226 203 204 200 224 226 223 199 200 211 190 186 193 173 178 184 176 169 176 190 178 165 165 165 162 147 144 157 162 161 154 152 171 170 173
314 314 312 305 298 288 258 246 216 185 194 194 189 197 203 208 206 206 211 260 241 183 182 174 176 182 165 166 173 166 162 162 152 152 163 171 171 177 180 180 188 195 207